When you browse on this site, cookies collect data to enhance your experience and personalize the content and advertising you see.
Visit our Privacy Policy to learn more. By continuing to use the site, you agree to this use of cookies and data.
  • In Hungary
  • List of Countries
  • For 7 days
  • Water Temperature
  • Satellite Maps
  • Weather Map
  • News
  • Weather Widgets
  • user-avatar
    Login

    Hourly Weather Legon

    Today, 17 January, Thursday

    Time Temperature Precipitation Wind Pressure Humidity
    00:00 +1°C° 0 mm 4 mps 745 mmHg 85%
    01:00 0°C° 0 mm 4 mps 744 mmHg 83%
    02:00 0°C° 0 mm 4 mps 744 mmHg 81%
    03:00 0°C° 0 mm 4 mps 744 mmHg 78%
    04:00 0°C° 0 mm 5 mps 743 mmHg 76%
    05:00 +1°C° 0 mm 5 mps 743 mmHg 76%
    06:00 +1°C° 0 mm 5 mps 743 mmHg 75%
    07:00 +1°C° 0 mm 5 mps 742 mmHg 75%
    08:00 +1°C° 0 mm 6 mps 743 mmHg 75%
    09:00 +2°C° 0 mm 6 mps 743 mmHg 75%
    10:00 +3°C° 0 mm 7 mps 743 mmHg 76%
    11:00 +3°C° 0 mm 6 mps 743 mmHg 76%
    12:00 +3°C° 0 mm 6 mps 743 mmHg 76%
    13:00 +5°C° 0 mm 5 mps 743 mmHg 76%
    14:00 +5°C° 0 mm 4 mps 743 mmHg 77%
    15:00 +5°C° 0 mm 4 mps 743 mmHg 78%
    16:00 +5°C° 0 mm 3 mps 743 mmHg 79%
    17:00 +4°C° 0.1 mm 4 mps 743 mmHg 82%
    18:00 +4°C° 0.1 mm 4 mps 743 mmHg 85%
    19:00 +3°C° 0.1 mm 4 mps 743 mmHg 88%
    20:00 +3°C° 0.1 mm 4 mps 743 mmHg 84%
    21:00 +2°C° 0.1 mm 5 mps 743 mmHg 80%
    22:00 +2°C° 0.1 mm 6 mps 743 mmHg 76%
    23:00 +2°C° 0 mm 6 mps 743 mmHg 76%

    Tomorrow, 18 January, Friday

    Time Temperature Precipitation Wind Pressure Humidity
    00:00 +1°C° 0 mm 6 mps 744 mmHg 75%
    01:00 0°C° 0 mm 5 mps 744 mmHg 75%
    02:00 -1°C° 0 mm 6 mps 745 mmHg 75%
    03:00 -1°C° 0 mm 6 mps 745 mmHg 75%
    04:00 -2°C° 0 mm 7 mps 745 mmHg 74%
    05:00 -2°C° 0 mm 7 mps 746 mmHg 73%
    06:00 -2°C° 0 mm 8 mps 747 mmHg 72%
    07:00 -2°C° 0 mm 8 mps 747 mmHg 71%
    08:00 -2°C° 0 mm 8 mps 748 mmHg 70%
    09:00 -2°C° 0 mm 8 mps 749 mmHg 70%
    10:00 -3°C° 0 mm 9 mps 750 mmHg 69%
    11:00 -2°C° 0.1 mm 8 mps 751 mmHg 68%
    12:00 -2°C° 0.1 mm 7 mps 752 mmHg 67%
    13:00 -2°C° 0.1 mm 7 mps 753 mmHg 67%
    14:00 -1°C° 0 mm 5 mps 754 mmHg 67%
    15:00 -2°C° 0 mm 4 mps 754 mmHg 67%
    16:00 -1°C° 0 mm 3 mps 755 mmHg 67%
    17:00 -1°C° 0 mm 3 mps 756 mmHg 71%
    18:00 -2°C° 0 mm 3 mps 756 mmHg 74%
    19:00 -2°C° 0 mm 3 mps 756 mmHg 77%
    20:00 -2°C° 0 mm 3 mps 757 mmHg 78%
    21:00 -2°C° 0 mm 3 mps 757 mmHg 79%
    22:00 -4°C° 0 mm 3 mps 757 mmHg 79%
    23:00 -2°C° 0 mm 3 mps 758 mmHg 77%

    Day after tomorrow, 19 January, Saturday

    Time Temperature Precipitation Wind Pressure Humidity
    00:00 -2°C° 0 mm 3 mps 758 mmHg 75%
    01:00 -2°C° 0 mm 3 mps 758 mmHg 73%
    02:00 -2°C° 0 mm 3 mps 758 mmHg 73%
    03:00 -2°C° 0 mm 3 mps 757 mmHg 73%
    04:00 -2°C° 0 mm 3 mps 757 mmHg 73%
    05:00 -2°C° 0 mm 3 mps 758 mmHg 74%
    06:00 -3°C° 0 mm 2 mps 758 mmHg 76%
    07:00 -3°C° 0 mm 2 mps 758 mmHg 77%
    08:00 -2°C° 0 mm 2 mps 758 mmHg 76%
    09:00 -2°C° 0 mm 2 mps 758 mmHg 74%
    10:00 -1°C° 0 mm 2 mps 758 mmHg 73%
    11:00 -1°C° 0 mm 2 mps 758 mmHg 70%
    12:00 +2°C° 0 mm 1 mps 758 mmHg 67%
    13:00 +3°C° 0 mm 1 mps 758 mmHg 64%
    14:00 +2°C° 0 mm 1 mps 758 mmHg 67%
    15:00 +2°C° 0 mm 1 mps 757 mmHg 70%
    16:00 0°C° 0 mm 0 mps 757 mmHg 72%
    17:00 +1°C° 0 mm 1 mps 757 mmHg 74%
    18:00 0°C° 0 mm 1 mps 757 mmHg 75%
    19:00 0°C° 0 mm 1 mps 757 mmHg 76%
    20:00 0°C° 0 mm 1 mps 757 mmHg 76%
    21:00 0°C° 0 mm 1 mps 757 mmHg 76%
    22:00 0°C° 0 mm 1 mps 757 mmHg 76%
    23:00 -1°C° 0 mm 1 mps 757 mmHg 74%

    20 January, Sunday

    Time Temperature Precipitation Wind Pressure Humidity
    00:00 -3°C° 0 mm 2 mps 757 mmHg 73%
    01:00 -3°C° 0 mm 2 mps 757 mmHg 71%
    02:00 -3°C° 0 mm 2 mps 757 mmHg 70%
    03:00 -1°C° 0 mm 1 mps 756 mmHg 69%
    04:00 -1°C° 0 mm 1 mps 756 mmHg 68%
    05:00 -1°C° 0 mm 1 mps 756 mmHg 68%
    06:00 -2°C° 0 mm 1 mps 756 mmHg 68%
    07:00 -2°C° 0 mm 1 mps 756 mmHg 68%
    08:00 -1°C° 0 mm 1 mps 756 mmHg 66%
    09:00 -1°C° 0 mm 1 mps 756 mmHg 63%
    10:00 0°C° 0 mm 1 mps 757 mmHg 60%
    11:00 0°C° 0 mm 1 mps 757 mmHg 57%
    12:00 +1°C° 0 mm 1 mps 756 mmHg 54%
    13:00 +2°C° 0 mm 1 mps 756 mmHg 50%
    14:00 +1°C° 0 mm 1 mps 756 mmHg 54%
    15:00 +1°C° 0 mm 1 mps 756 mmHg 58%
    16:00 0°C° 0 mm 1 mps 757 mmHg 61%
    17:00 0°C° 0 mm 1 mps 757 mmHg 64%
    18:00 -1°C° 0 mm 1 mps 757 mmHg 67%
    19:00 -1°C° 0 mm 1 mps 758 mmHg 71%
    20:00 -2°C° 0 mm 0 mps 758 mmHg 72%
    21:00 -2°C° 0 mm 0 mps 758 mmHg 73%
    22:00 -2°C° 0 mm 0 mps 759 mmHg 74%
    23:00 -3°C° 0 mm 0 mps 759 mmHg 74%

    21 January, Monday

    Time Temperature Precipitation Wind Pressure Humidity
    00:00 -3°C° 0 mm 0 mps 759 mmHg 75%
    01:00 -3°C° 0 mm 0 mps 759 mmHg 75%
    02:00 -3°C° 0 mm 0 mps 759 mmHg 76%
    03:00 -3°C° 0 mm 0 mps 759 mmHg 76%
    04:00 -3°C° 0 mm 0 mps 759 mmHg 76%
    05:00 -3°C° 0 mm 0 mps 759 mmHg 76%
    06:00 -3°C° 0 mm 0 mps 759 mmHg 76%
    07:00 -4°C° 0 mm 0 mps 759 mmHg 77%
    08:00 -2°C° 0 mm 1 mps 759 mmHg 73%
    09:00 -1°C° 0 mm 1 mps 759 mmHg 70%
    10:00 -1°C° 0 mm 1 mps 759 mmHg 67%
    11:00 -2°C° 0 mm 2 mps 759 mmHg 63%
    12:00 -1°C° 0 mm 2 mps 759 mmHg 59%
    13:00 -1°C° 0 mm 2 mps 759 mmHg 54%
    14:00 -1°C° 0 mm 2 mps 758 mmHg 57%
    15:00 -2°C° 0 mm 2 mps 758 mmHg 59%
    16:00 -2°C° 0 mm 2 mps 758 mmHg 61%
    17:00 -3°C° 0 mm 2 mps 758 mmHg 63%
    18:00 -4°C° 0 mm 3 mps 758 mmHg 64%
    19:00 -4°C° 0 mm 3 mps 758 mmHg 65%
    20:00 -4°C° 0 mm 3 mps 757 mmHg 65%
    21:00 -5°C° 0 mm 3 mps 757 mmHg 65%
    22:00 -5°C° 0 mm 3 mps 757 mmHg 65%
    23:00 -5°C° 0 mm 3 mps 757 mmHg 65%

    22 January, Tuesday

    Time Temperature Precipitation Wind Pressure Humidity
    00:00 -5°C° 0 mm 3 mps 756 mmHg 65%
    01:00 -5°C° 0 mm 3 mps 756 mmHg 65%
    02:00 -5°C° 0 mm 3 mps 755 mmHg 65%
    03:00 -4°C° 0 mm 2 mps 755 mmHg 64%
    04:00 -4°C° 0 mm 2 mps 754 mmHg 64%
    05:00 -4°C° 0 mm 2 mps 754 mmHg 65%
    06:00 -5°C° 0 mm 2 mps 754 mmHg 65%
    07:00 -5°C° 0 mm 2 mps 753 mmHg 66%
    08:00 -5°C° 0 mm 3 mps 753 mmHg 64%
    09:00 -5°C° 0 mm 3 mps 753 mmHg 62%
    10:00 -4°C° 0 mm 3 mps 753 mmHg 60%
    11:00 -2°C° 0 mm 3 mps 752 mmHg 58%
    12:00 -2°C° 0 mm 3 mps 751 mmHg 56%
    13:00 -1°C° 0 mm 2 mps 751 mmHg 54%
    14:00 -1°C° 0 mm 2 mps 750 mmHg 56%
    15:00 -2°C° 0 mm 2 mps 750 mmHg 59%
    16:00 -2°C° 0 mm 2 mps 750 mmHg 61%
    17:00 -4°C° 0 mm 3 mps 749 mmHg 64%
    18:00 -4°C° 0 mm 3 mps 749 mmHg 66%
    19:00 -4°C° 0 mm 3 mps 749 mmHg 69%
    20:00 -4°C° 0 mm 3 mps 749 mmHg 71%
    21:00 -5°C° 0 mm 3 mps 749 mmHg 73%
    22:00 -5°C° 0 mm 3 mps 749 mmHg 74%
    23:00 -5°C° 0 mm 3 mps 749 mmHg 73%
    Show more